ACA879 LFBO-CYUL

Flight info

Callsign ACA879
Flight time N/A
Altitude 38000
Route LACOU DCT CNA DCT MANAK DCT DEGEX DCT BERAD DCT DOLUR DCT LESLU DCT BEXET DCT DOGAL/M084F380 DCT 54N020W 54N030W 5330N04000W 5230N05000W DCT SAXAN/N0481F380 DCT TAFFY DCT ATENE DCT KEBIG ROCKT3
Aircraft B789/H-SDE1E2E3FGHIJ2J3J4J5M1RWXY/LB1D1

Departure

Time 2026-05-06 10:37
Airport Toulouse-Blagnac Airport (LFBO)

Arrival

Time N/A
Airport Montreal / Pierre Elliott Trudeau International Airport (CYUL)
Time Latitude Longitude Altitude Speed Heading
2026-05-06 10:17 43.63276 1.36912 499 ft 0 kts 144°
2026-05-06 10:26 43.63291 1.36898 499 ft 4 kts 149°
2026-05-06 10:26 43.63310 1.36880 499 ft 2 kts 136°
2026-05-06 10:26 43.63329 1.36859 499 ft 4 kts 154°
2026-05-06 10:27 43.63352 1.36852 499 ft 4 kts 206°
2026-05-06 10:27 43.63369 1.36874 499 ft 4 kts 234°
2026-05-06 10:27 43.63378 1.36893 499 ft 2 kts 234°
2026-05-06 10:29 43.63378 1.36892 499 ft 0 kts 234°
2026-05-06 10:29 43.63377 1.36890 499 ft 1 kts 234°
2026-05-06 10:29 43.63370 1.36876 499 ft 3 kts 234°
2026-05-06 10:30 43.63351 1.36841 499 ft 6 kts 234°
2026-05-06 10:30 43.63324 1.36788 499 ft 8 kts 234°
2026-05-06 10:30 43.63290 1.36716 499 ft 9 kts 244°
2026-05-06 10:30 43.63256 1.36643 499 ft 9 kts 226°
2026-05-06 10:31 43.63205 1.36633 499 ft 8 kts 160°
2026-05-06 10:31 43.63152 1.36681 499 ft 11 kts 145°
2026-05-06 10:31 43.63087 1.36748 499 ft 12 kts 143°
2026-05-06 10:31 43.63019 1.36819 499 ft 12 kts 143°
2026-05-06 10:32 43.62949 1.36893 499 ft 13 kts 143°
2026-05-06 10:32 43.62876 1.36969 499 ft 13 kts 143°
2026-05-06 10:32 43.62799 1.37050 499 ft 15 kts 143°
2026-05-06 10:32 43.62715 1.37137 499 ft 16 kts 143°
2026-05-06 10:33 43.62624 1.37230 499 ft 17 kts 143°
2026-05-06 10:33 43.62528 1.37330 499 ft 18 kts 144°
2026-05-06 10:33 43.62429 1.37431 499 ft 18 kts 143°
2026-05-06 10:33 43.62333 1.37532 499 ft 18 kts 142°
2026-05-06 10:34 43.62235 1.37635 499 ft 18 kts 143°
2026-05-06 10:34 43.62136 1.37737 499 ft 18 kts 143°
2026-05-06 10:34 43.62038 1.37839 499 ft 18 kts 143°
2026-05-06 10:34 43.61939 1.37940 499 ft 18 kts 143°
2026-05-06 10:35 43.61841 1.38042 499 ft 18 kts 142°
2026-05-06 10:35 43.61747 1.38140 499 ft 16 kts 145°
2026-05-06 10:35 43.61654 1.38151 499 ft 12 kts 217°
2026-05-06 10:35 43.61599 1.38065 499 ft 11 kts 232°
2026-05-06 10:36 43.61597 1.37995 499 ft 4 kts 310°
2026-05-06 10:36 43.61605 1.37984 499 ft 0 kts 317°
2026-05-06 10:36 43.61670 1.37912 499 ft 35 kts 322°
2026-05-06 10:36 43.62046 1.37523 499 ft 101 kts 323°
2026-05-06 10:37 43.62776 1.36761 502 ft 160 kts 321°
2026-05-06 10:37 43.63752 1.35797 964 ft 182 kts 322°
2026-05-06 10:37 43.64792 1.34738 1887 ft 187 kts 316°
2026-05-06 10:37 43.65189 1.34250 2297 ft 183 kts 314°
2026-05-06 10:38 43.65754 1.33563 2917 ft 181 kts 314°
2026-05-06 10:38 43.66741 1.32438 3678 ft 188 kts 316°
2026-05-06 10:38 43.67836 1.31232 4091 ft 214 kts 317°
2026-05-06 10:38 43.69083 1.29865 4423 ft 244 kts 318°
2026-05-06 10:39 43.70446 1.28376 5316 ft 250 kts 318°
2026-05-06 10:39 43.71865 1.26950 6274 ft 258 kts 330°
2026-05-06 10:39 43.73628 1.26256 6971 ft 268 kts 343°
2026-05-06 10:39 43.75429 1.25642 7724 ft 271 kts 343°
2026-05-06 10:40 43.77255 1.24992 8505 ft 271 kts 336°
2026-05-06 10:40 43.78955 1.23840 9240 ft 272 kts 331°
2026-05-06 10:40 43.80685 1.22738 9982 ft 275 kts 333°
2026-05-06 10:40 43.82476 1.21601 10289 ft 296 kts 332°
2026-05-06 10:41 43.84420 1.20321 10307 ft 323 kts 332°
2026-05-06 10:41 43.86505 1.18947 10705 ft 334 kts 332°
2026-05-06 10:41 43.88613 1.17569 11436 ft 336 kts 332°
2026-05-06 10:41 43.90744 1.16175 12125 ft 339 kts 332°
2026-05-06 10:42 43.92865 1.14782 12720 ft 344 kts 332°
2026-05-06 10:42 43.95037 1.13354 13348 ft 348 kts 332°
2026-05-06 10:42 43.97270 1.12008 13973 ft 353 kts 341°
2026-05-06 10:42 43.99696 1.11387 14614 ft 357 kts 350°
2026-05-06 10:43 44.01344 1.11164 15036 ft 359 kts 353°
2026-05-06 10:43 44.03820 1.10930 15586 ft 363 kts 354°
2026-05-06 10:43 44.07186 1.10660 16335 ft 366 kts 354°
2026-05-06 10:44 44.12308 1.10282 17412 ft 372 kts 355°
2026-05-06 10:44 44.14057 1.10154 17778 ft 373 kts 354°
2026-05-06 10:44 44.16660 1.09965 18295 ft 375 kts 354°
2026-05-06 10:44 44.19244 1.09778 18695 ft 378 kts 354°
2026-05-06 10:45 44.21882 1.09587 19165 ft 379 kts 354°
2026-05-06 10:45 44.24532 1.09393 19598 ft 381 kts 354°
2026-05-06 10:45 44.27193 1.09194 20016 ft 383 kts 354°
2026-05-06 10:45 44.29864 1.08994 20450 ft 385 kts 354°
2026-05-06 10:46 44.32514 1.08800 20851 ft 386 kts 354°
2026-05-06 10:46 44.35168 1.08610 21265 ft 387 kts 354°
2026-05-06 10:46 44.37870 1.08421 21643 ft 389 kts 354°
2026-05-06 10:46 44.40595 1.08236 22034 ft 391 kts 354°
2026-05-06 10:47 44.43321 1.08053 22350 ft 394 kts 355°
2026-05-06 10:47 44.46071 1.07855 22661 ft 397 kts 354°
2026-05-06 10:47 44.48840 1.07650 23028 ft 398 kts 354°
2026-05-06 10:47 44.51579 1.07449 23354 ft 400 kts 354°
2026-05-06 10:48 44.54364 1.07198 23635 ft 400 kts 349°
2026-05-06 10:48 44.57041 1.06210 23871 ft 397 kts 334°
2026-05-06 10:48 44.59423 1.04249 24101 ft 398 kts 321°
2026-05-06 10:48 44.61508 1.01695 24334 ft 399 kts 316°
2026-05-06 10:49 44.63551 0.99030 24492 ft 403 kts 317°
2026-05-06 10:49 44.65654 0.96412 24761 ft 404 kts 318°
2026-05-06 10:49 44.67788 0.93820 24994 ft 406 kts 318°
2026-05-06 10:49 44.69883 0.91230 25213 ft 407 kts 317°
2026-05-06 10:50 44.72001 0.88568 25454 ft 409 kts 317°
2026-05-06 10:50 44.74129 0.85905 25707 ft 410 kts 317°
2026-05-06 10:50 44.76274 0.83240 25924 ft 412 kts 317°
2026-05-06 10:50 44.78436 0.80549 26174 ft 414 kts 317°
2026-05-06 10:51 44.80593 0.77849 26416 ft 415 kts 317°
2026-05-06 10:51 44.82755 0.75139 26671 ft 416 kts 318°
2026-05-06 10:51 44.84917 0.72434 26958 ft 416 kts 318°
2026-05-06 10:51 44.87087 0.69714 27204 ft 418 kts 318°
2026-05-06 10:52 44.89271 0.66973 27521 ft 420 kts 318°
2026-05-06 10:52 44.91455 0.64229 27842 ft 422 kts 318°
2026-05-06 10:52 44.93649 0.61469 28176 ft 424 kts 318°
2026-05-06 10:52 44.95832 0.58723 28505 ft 427 kts 318°
2026-05-06 10:53 44.98062 0.55911 28871 ft 429 kts 318°
2026-05-06 10:53 45.00289 0.53099 29161 ft 431 kts 318°
2026-05-06 10:53 45.02539 0.50257 29436 ft 434 kts 318°
2026-05-06 10:53 45.04793 0.47408 29739 ft 435 kts 318°
2026-05-06 10:54 45.07052 0.44549 30005 ft 437 kts 318°
2026-05-06 10:54 45.09328 0.41664 30244 ft 440 kts 318°
2026-05-06 10:54 45.11613 0.38764 30446 ft 442 kts 317°
2026-05-06 10:54 45.13872 0.35895 30692 ft 443 kts 318°
2026-05-06 10:55 45.16177 0.32964 30904 ft 445 kts 318°
2026-05-06 10:55 45.18489 0.30021 31099 ft 448 kts 318°
2026-05-06 10:55 45.20816 0.27053 31233 ft 452 kts 318°
2026-05-06 10:55 45.23163 0.24060 31449 ft 455 kts 318°
2026-05-06 10:56 45.25521 0.21049 31647 ft 457 kts 318°
2026-05-06 10:56 45.27897 0.18010 31852 ft 459 kts 318°
2026-05-06 10:56 45.30280 0.14957 32070 ft 462 kts 318°
2026-05-06 10:56 45.32673 0.11889 32266 ft 464 kts 317°
2026-05-06 10:57 45.35077 0.08804 32459 ft 467 kts 317°
2026-05-06 10:57 45.37496 0.05696 32656 ft 469 kts 317°
2026-05-06 10:57 45.39894 0.02608 32819 ft 472 kts 317°
2026-05-06 10:57 45.42330 -0.00530 32999 ft 474 kts 317°
2026-05-06 10:58 45.44783 -0.03690 33190 ft 476 kts 318°
2026-05-06 10:58 45.47244 -0.06867 33372 ft 478 kts 318°
2026-05-06 10:58 45.49713 -0.10062 33538 ft 480 kts 317°
2026-05-06 10:58 45.52197 -0.13278 33700 ft 482 kts 317°
2026-05-06 10:59 45.54685 -0.16502 33964 ft 483 kts 317°
2026-05-06 10:59 45.57172 -0.19729 34196 ft 483 kts 317°
2026-05-06 10:59 45.59661 -0.22963 34466 ft 482 kts 317°
2026-05-06 10:59 45.62107 -0.26145 34713 ft 482 kts 317°
2026-05-06 11:00 45.64588 -0.29378 34879 ft 483 kts 317°
2026-05-06 11:00 45.67132 -0.32501 35106 ft 482 kts 322°
2026-05-06 11:00 45.69780 -0.35463 35238 ft 484 kts 321°
2026-05-06 11:00 45.72432 -0.38441 35447 ft 484 kts 321°
2026-05-06 11:01 45.75075 -0.41425 35673 ft 484 kts 321°
2026-05-06 11:01 45.77717 -0.44414 35879 ft 484 kts 321°
2026-05-06 11:01 45.80359 -0.47398 36143 ft 482 kts 321°
2026-05-06 11:01 45.82998 -0.50381 36346 ft 483 kts 321°
2026-05-06 11:02 45.85636 -0.53371 36498 ft 484 kts 321°
2026-05-06 11:02 45.88246 -0.56334 36702 ft 484 kts 321°
2026-05-06 11:02 45.90890 -0.59338 36876 ft 485 kts 321°
2026-05-06 11:02 45.93534 -0.62343 37109 ft 484 kts 321°
2026-05-06 11:03 45.96172 -0.65348 37317 ft 484 kts 320°
2026-05-06 11:03 45.98811 -0.68357 37525 ft 484 kts 320°
2026-05-06 11:03 46.01452 -0.71372 37720 ft 484 kts 320°
2026-05-06 11:03 46.04092 -0.74390 37884 ft 485 kts 320°
2026-05-06 11:04 46.06744 -0.77426 37912 ft 488 kts 320°
2026-05-06 11:04 46.12017 -0.83471 37912 ft 484 kts 320°
2026-05-06 11:05 46.17260 -0.89499 37926 ft 481 kts 320°
2026-05-06 11:05 46.22367 -0.95603 37952 ft 480 kts 315°
2026-05-06 11:06 46.27202 -1.02353 37934 ft 484 kts 315°
2026-05-06 11:06 46.32024 -1.09059 37940 ft 484 kts 315°
2026-05-06 11:07 46.36854 -1.15812 37949 ft 482 kts 315°
2026-05-06 11:07 46.41677 -1.22565 37947 ft 481 kts 315°
2026-05-06 11:08 46.46475 -1.29303 37950 ft 479 kts 315°
2026-05-06 11:08 46.51277 -1.36061 37963 ft 480 kts 315°
2026-05-06 11:09 46.56063 -1.42818 37969 ft 484 kts 315°
2026-05-06 11:09 46.60884 -1.49641 37968 ft 481 kts 315°
2026-05-06 11:10 46.65682 -1.56446 37970 ft 480 kts 314°
2026-05-06 11:10 46.70417 -1.63185 37960 ft 479 kts 315°
2026-05-06 11:11 46.75197 -1.69999 37951 ft 480 kts 315°
2026-05-06 11:11 46.79977 -1.76837 37954 ft 482 kts 315°
2026-05-06 11:12 46.84774 -1.83714 37957 ft 482 kts 314°
2026-05-06 11:12 46.89536 -1.90559 37945 ft 480 kts 315°
2026-05-06 11:13 46.94285 -1.97404 37959 ft 477 kts 314°
2026-05-06 11:13 46.99000 -2.04218 37962 ft 481 kts 314°
2026-05-06 11:14 47.03762 -2.11118 37966 ft 481 kts 315°
2026-05-06 11:14 47.08526 -2.18039 37966 ft 481 kts 315°
2026-05-06 11:15 47.13275 -2.24957 37971 ft 480 kts 314°
2026-05-06 11:15 47.17987 -2.31839 37968 ft 481 kts 314°
2026-05-06 11:16 47.22737 -2.38795 37969 ft 482 kts 314°
2026-05-06 11:16 47.27484 -2.45765 37973 ft 482 kts 314°
2026-05-06 11:17 47.32230 -2.52753 37971 ft 482 kts 314°
2026-05-06 11:17 47.36962 -2.59738 37969 ft 481 kts 314°
2026-05-06 11:18 47.41695 -2.66745 37977 ft 482 kts 314°
2026-05-06 11:18 47.46420 -2.73758 37977 ft 481 kts 314°
2026-05-06 11:19 47.51108 -2.80735 37965 ft 480 kts 314°
2026-05-06 11:19 47.55809 -2.87750 37974 ft 480 kts 314°
2026-05-06 11:20 47.60516 -2.94793 37969 ft 481 kts 314°
2026-05-06 11:20 47.65229 -3.01863 37968 ft 480 kts 314°
2026-05-06 11:21 47.69925 -3.08930 37969 ft 480 kts 314°
2026-05-06 11:21 47.74577 -3.15962 37973 ft 479 kts 311°
2026-05-06 11:22 47.79117 -3.23232 37969 ft 480 kts 313°
2026-05-06 11:22 47.83681 -3.30500 37968 ft 479 kts 312°
2026-05-06 11:23 47.88206 -3.37796 37968 ft 479 kts 312°
2026-05-06 11:23 47.92750 -3.45087 37967 ft 479 kts 312°
2026-05-06 11:24 47.97239 -3.52350 37970 ft 479 kts 312°
2026-05-06 11:24 48.01762 -3.59661 37975 ft 479 kts 312°
2026-05-06 11:25 48.06269 -3.66983 37975 ft 479 kts 312°
2026-05-06 11:25 48.10785 -3.74330 37978 ft 479 kts 312°
2026-05-06 11:26 48.15195 -3.81532 37973 ft 480 kts 312°
2026-05-06 11:26 48.19736 -3.88963 37977 ft 479 kts 311°
2026-05-06 11:27 48.24220 -3.96324 37980 ft 478 kts 311°
2026-05-06 11:27 48.28702 -4.03675 37986 ft 476 kts 315°
2026-05-06 11:27 48.31239 -4.06865 38003 ft 477 kts 326°
2026-05-06 11:28 48.34112 -4.09380 37994 ft 480 kts 330°
2026-05-06 11:28 48.39989 -4.14208 37995 ft 481 kts 330°
2026-05-06 11:29 48.44870 -4.18224 38000 ft 480 kts 330°
2026-05-06 11:29 48.50718 -4.23063 38004 ft 480 kts 330°
2026-05-06 11:30 48.56581 -4.27912 38001 ft 480 kts 330°
2026-05-06 11:30 48.62441 -4.32781 37995 ft 480 kts 330°
2026-05-06 11:31 48.68303 -4.37659 37998 ft 480 kts 330°
2026-05-06 11:31 48.74105 -4.42504 37995 ft 479 kts 330°
2026-05-06 11:32 48.79945 -4.47391 38005 ft 479 kts 330°
2026-05-06 11:32 48.85783 -4.52292 37998 ft 478 kts 330°
2026-05-06 11:33 48.91622 -4.57204 37996 ft 479 kts 330°
2026-05-06 11:33 48.97452 -4.62124 38000 ft 479 kts 330°
2026-05-06 11:34 49.03245 -4.67025 38003 ft 480 kts 330°
2026-05-06 11:34 49.09085 -4.71979 38010 ft 480 kts 330°
2026-05-06 11:35 49.14928 -4.76949 38011 ft 480 kts 330°
2026-05-06 11:35 49.20767 -4.81930 38018 ft 480 kts 329°
2026-05-06 11:36 49.26593 -4.86913 38009 ft 479 kts 329°
2026-05-06 11:36 49.32422 -4.91912 38010 ft 479 kts 329°
2026-05-06 11:37 49.38208 -4.96888 38012 ft 479 kts 329°
2026-05-06 11:37 49.44032 -5.01911 38018 ft 480 kts 329°
2026-05-06 11:38 49.49466 -5.07760 38030 ft 477 kts 312°
2026-05-06 11:38 49.53782 -5.15520 38011 ft 478 kts 309°
2026-05-06 11:39 49.57999 -5.23347 38013 ft 477 kts 309°
2026-05-06 11:39 49.62256 -5.31205 38010 ft 477 kts 309°
2026-05-06 11:40 49.66497 -5.39095 38006 ft 477 kts 309°
2026-05-06 11:40 49.70729 -5.46971 38006 ft 474 kts 309°
2026-05-06 11:41 49.74911 -5.54788 38005 ft 475 kts 308°
2026-05-06 11:41 49.79122 -5.62677 38016 ft 476 kts 309°
2026-05-06 11:42 49.83335 -5.70596 38025 ft 475 kts 308°
2026-05-06 11:42 49.87540 -5.78524 38020 ft 476 kts 308°
2026-05-06 11:43 49.91741 -5.86468 38038 ft 476 kts 308°
2026-05-06 11:43 49.95918 -5.94390 38029 ft 476 kts 308°
2026-05-06 11:44 50.02136 -6.06229 38029 ft 475 kts 308°
2026-05-06 11:44 50.06306 -6.14199 38036 ft 475 kts 308°
2026-05-06 11:45 50.10481 -6.22203 38035 ft 475 kts 308°
2026-05-06 11:45 50.14647 -6.30213 38043 ft 476 kts 308°
2026-05-06 11:46 50.18790 -6.38204 38044 ft 476 kts 308°
2026-05-06 11:46 50.22958 -6.46267 38052 ft 477 kts 308°
2026-05-06 11:47 50.27118 -6.54341 38049 ft 476 kts 308°
2026-05-06 11:47 50.31260 -6.62404 38046 ft 474 kts 308°
2026-05-06 11:48 50.35379 -6.70448 38044 ft 473 kts 308°
2026-05-06 11:48 50.39477 -6.78475 38047 ft 474 kts 308°
2026-05-06 11:49 50.43602 -6.86579 38056 ft 475 kts 308°
2026-05-06 11:49 50.47729 -6.94712 38053 ft 475 kts 308°
2026-05-06 11:50 50.51833 -7.02827 38046 ft 474 kts 308°
2026-05-06 11:50 50.55924 -7.10941 38044 ft 473 kts 307°
2026-05-06 11:51 50.60008 -7.19066 38042 ft 473 kts 307°
2026-05-06 11:51 50.64065 -7.27160 38044 ft 473 kts 307°
2026-05-06 11:52 50.68143 -7.35325 38050 ft 473 kts 307°
2026-05-06 11:52 50.72207 -7.43486 38047 ft 472 kts 307°
2026-05-06 11:53 50.76257 -7.51645 38037 ft 472 kts 307°
2026-05-06 11:53 50.80314 -7.59842 38043 ft 474 kts 307°
2026-05-06 11:54 50.84380 -7.68085 38053 ft 475 kts 307°
2026-05-06 11:54 50.88422 -7.76304 38050 ft 476 kts 307°
2026-05-06 11:55 50.92480 -7.84583 38049 ft 474 kts 307°
2026-05-06 11:55 50.96517 -7.92846 38047 ft 473 kts 307°
2026-05-06 11:56 51.00580 -8.01047 38052 ft 471 kts 312°
2026-05-06 11:56 51.04965 -8.08842 38040 ft 475 kts 311°
2026-05-06 11:57 51.09320 -8.16649 38047 ft 475 kts 311°
2026-05-06 11:57 51.13708 -8.24514 38042 ft 474 kts 311°
2026-05-06 11:58 51.18084 -8.32400 38042 ft 474 kts 311°
2026-05-06 11:58 51.22456 -8.40290 38043 ft 474 kts 310°
2026-05-06 11:59 51.26813 -8.48187 38053 ft 473 kts 310°
2026-05-06 11:59 51.31156 -8.56077 38042 ft 472 kts 310°
2026-05-06 12:00 51.35463 -8.63931 38030 ft 472 kts 310°
2026-05-06 12:00 51.39778 -8.71819 38029 ft 471 kts 310°
2026-05-06 12:01 51.44110 -8.79766 38036 ft 473 kts 310°
2026-05-06 12:01 51.48442 -8.87738 38044 ft 474 kts 310°
2026-05-06 12:02 51.52736 -8.95664 38045 ft 472 kts 310°
2026-05-06 12:02 51.57032 -9.03618 38040 ft 470 kts 310°
2026-05-06 12:03 51.61322 -9.11588 38035 ft 472 kts 310°
2026-05-06 12:03 51.65617 -9.19591 38030 ft 473 kts 310°
2026-05-06 12:04 51.69922 -9.27638 38031 ft 474 kts 310°
2026-05-06 12:04 51.74225 -9.35708 38035 ft 473 kts 310°
2026-05-06 12:05 51.78517 -9.43782 38030 ft 472 kts 310°
2026-05-06 12:05 51.82764 -9.51796 38031 ft 472 kts 310°
2026-05-06 12:06 51.87029 -9.59872 38033 ft 471 kts 310°
2026-05-06 12:06 51.91281 -9.67949 38032 ft 470 kts 310°
2026-05-06 12:07 51.95495 -9.75976 38037 ft 470 kts 310°
2026-05-06 12:07 51.99736 -9.84083 38041 ft 472 kts 310°
2026-05-06 12:08 52.03987 -9.92234 38031 ft 472 kts 310°
2026-05-06 12:08 52.08230 -10.00397 38037 ft 473 kts 310°
2026-05-06 12:09 52.12472 -10.08585 38039 ft 471 kts 310°
2026-05-06 12:09 52.16691 -10.16754 38042 ft 470 kts 310°
2026-05-06 12:10 52.20869 -10.24869 38042 ft 470 kts 310°
2026-05-06 12:10 52.25076 -10.33068 38048 ft 471 kts 310°
2026-05-06 12:11 52.29272 -10.41273 38049 ft 471 kts 310°
2026-05-06 12:11 52.33462 -10.49491 38055 ft 470 kts 310°
2026-05-06 12:12 52.37643 -10.57718 38056 ft 470 kts 310°
2026-05-06 12:12 52.41818 -10.65961 38054 ft 469 kts 310°
2026-05-06 12:13 52.45958 -10.74161 38051 ft 469 kts 310°
2026-05-06 12:13 52.50094 -10.82382 38057 ft 469 kts 310°
2026-05-06 12:14 52.54233 -10.90635 38042 ft 466 kts 310°
2026-05-06 12:14 52.58347 -10.98861 38047 ft 467 kts 310°
2026-05-06 12:15 52.61782 -11.05755 38064 ft 468 kts 310°
2026-05-06 12:15 52.66582 -11.15415 38056 ft 468 kts 310°
2026-05-06 12:16 52.70003 -11.22325 38055 ft 467 kts 310°
2026-05-06 12:16 52.74097 -11.30617 38057 ft 463 kts 310°
2026-05-06 12:17 52.78151 -11.38856 38052 ft 462 kts 310°
2026-05-06 12:17 52.82212 -11.47137 38052 ft 463 kts 310°
2026-05-06 12:18 52.86273 -11.55444 38059 ft 464 kts 310°
2026-05-06 12:18 52.90337 -11.63784 38061 ft 465 kts 310°
2026-05-06 12:19 52.94398 -11.72146 38049 ft 465 kts 310°
2026-05-06 12:19 52.98415 -11.80445 38045 ft 463 kts 310°
2026-05-06 12:20 53.02440 -11.88790 38046 ft 462 kts 309°
2026-05-06 12:20 53.06455 -11.97139 38046 ft 463 kts 309°
2026-05-06 12:21 53.10475 -12.05528 38044 ft 464 kts 309°
2026-05-06 12:21 53.14499 -12.13953 38055 ft 463 kts 309°
2026-05-06 12:22 53.18469 -12.22293 38056 ft 461 kts 309°
2026-05-06 12:22 53.22454 -12.30692 38051 ft 461 kts 309°
2026-05-06 12:23 53.26429 -12.39099 38041 ft 461 kts 309°
2026-05-06 12:23 53.30405 -12.47534 38044 ft 463 kts 309°
2026-05-06 12:24 53.34372 -12.55980 38058 ft 464 kts 309°
2026-05-06 12:24 53.38333 -12.64443 38052 ft 459 kts 309°
2026-05-06 12:25 53.42273 -12.72886 38048 ft 459 kts 308°
2026-05-06 12:25 53.46202 -12.81337 38047 ft 459 kts 308°
2026-05-06 12:26 53.50123 -12.89798 38046 ft 459 kts 308°
2026-05-06 12:26 53.54019 -12.98233 38049 ft 460 kts 308°
2026-05-06 12:27 53.57938 -13.06746 38044 ft 458 kts 308°
2026-05-06 12:27 53.61825 -13.15220 38043 ft 457 kts 308°
2026-05-06 12:28 53.65709 -13.23715 38041 ft 458 kts 308°
2026-05-06 12:28 53.69603 -13.32261 38044 ft 459 kts 308°
2026-05-06 12:29 53.73470 -13.40777 38045 ft 460 kts 308°
2026-05-06 12:29 53.77356 -13.49363 38047 ft 458 kts 308°
2026-05-06 12:30 53.81211 -13.57911 38042 ft 456 kts 307°
2026-05-06 12:30 53.85063 -13.66482 38045 ft 457 kts 307°
2026-05-06 12:31 53.88889 -13.75023 38031 ft 458 kts 307°
2026-05-06 12:31 53.92742 -13.83656 38031 ft 459 kts 307°
2026-05-06 12:32 53.96590 -13.92324 38046 ft 458 kts 304°
2026-05-06 12:32 53.99323 -14.02035 38051 ft 458 kts 285°
2026-05-06 12:33 54.00041 -14.12747 38043 ft 462 kts 272°
2026-05-06 12:33 54.00080 -14.23700 38043 ft 463 kts 272°
2026-05-06 12:34 54.00092 -14.34687 38020 ft 464 kts 272°
2026-05-06 12:34 54.00105 -14.45575 38022 ft 462 kts 272°
2026-05-06 12:35 54.00102 -14.56485 38023 ft 461 kts 272°
2026-05-06 12:35 54.00093 -14.67379 38026 ft 460 kts 272°
2026-05-06 12:36 54.00072 -14.78283 38031 ft 462 kts 271°
2026-05-06 12:36 54.00041 -14.89240 38017 ft 464 kts 271°
2026-05-06 12:37 54.00006 -15.00150 38031 ft 464 kts 274°
2026-05-06 12:37 54.00234 -15.11099 38032 ft 464 kts 273°
2026-05-06 12:38 54.00434 -15.22067 38032 ft 463 kts 274°
2026-05-06 12:38 54.00644 -15.32999 38029 ft 462 kts 273°
2026-05-06 12:39 54.00830 -15.43910 38005 ft 460 kts 274°
2026-05-06 12:39 54.01015 -15.54807 38027 ft 460 kts 273°
2026-05-06 12:40 54.01183 -15.65585 38023 ft 459 kts 273°
2026-05-06 12:40 54.01346 -15.76447 38024 ft 460 kts 273°
2026-05-06 12:41 54.01497 -15.87337 38024 ft 461 kts 273°
2026-05-06 12:41 54.01640 -15.98256 38026 ft 462 kts 273°
2026-05-06 12:42 54.01772 -16.09179 38023 ft 462 kts 273°
2026-05-06 12:42 54.01895 -16.20105 38023 ft 461 kts 272°
2026-05-06 12:43 54.02007 -16.30936 38023 ft 461 kts 272°
2026-05-06 12:43 54.02110 -16.41827 38022 ft 460 kts 272°
2026-05-06 12:44 54.02202 -16.52708 38017 ft 460 kts 272°
2026-05-06 12:44 54.02285 -16.63575 38021 ft 459 kts 272°
2026-05-06 12:45 54.02358 -16.74428 38020 ft 459 kts 272°
2026-05-06 12:46 54.02449 -16.90640 38012 ft 458 kts 272°
2026-05-06 12:46 54.02498 -17.01483 38021 ft 459 kts 272°
2026-05-06 12:47 54.02537 -17.12376 38017 ft 460 kts 272°
2026-05-06 12:47 54.02566 -17.23238 38040 ft 461 kts 272°
2026-05-06 12:48 54.02584 -17.34116 38024 ft 458 kts 271°
2026-05-06 12:48 54.02594 -17.44953 38022 ft 458 kts 271°
2026-05-06 12:49 54.02594 -17.55778 38020 ft 457 kts 271°
2026-05-06 12:49 54.02584 -17.66621 38017 ft 458 kts 271°
2026-05-06 12:50 54.02564 -17.77402 38029 ft 459 kts 271°
2026-05-06 12:50 54.02534 -17.88296 38022 ft 461 kts 271°
2026-05-06 12:51 54.02495 -17.99206 38022 ft 461 kts 271°
2026-05-06 12:51 54.02445 -18.10109 38018 ft 459 kts 271°
2026-05-06 12:52 54.02386 -18.20975 38006 ft 458 kts 271°
2026-05-06 12:52 54.02318 -18.31772 38014 ft 460 kts 271°
2026-05-06 12:53 54.02239 -18.42688 38023 ft 462 kts 270°
2026-05-06 12:53 54.02150 -18.53617 38029 ft 461 kts 270°
2026-05-06 12:54 54.02052 -18.64438 38015 ft 459 kts 270°
2026-05-06 12:54 54.01944 -18.75311 37994 ft 458 kts 270°
2026-05-06 12:55 54.01825 -18.86225 38029 ft 463 kts 270°
2026-05-06 12:55 54.01697 -18.97127 38041 ft 463 kts 270°
2026-05-06 12:56 54.01559 -19.08045 38022 ft 460 kts 270°
2026-05-06 12:56 54.01411 -19.18949 38029 ft 460 kts 270°
2026-05-06 12:57 54.01253 -19.29838 38011 ft 460 kts 269°
2026-05-06 12:57 54.01086 -19.40696 38016 ft 464 kts 269°
2026-05-06 12:58 54.00907 -19.51675 38015 ft 464 kts 269°
2026-05-06 12:58 54.00719 -19.62641 38023 ft 463 kts 269°
2026-05-06 12:59 54.00521 -19.73589 38018 ft 463 kts 269°
2026-05-06 12:59 54.00312 -19.84529 38018 ft 462 kts 269°
2026-05-06 13:00 54.00095 -19.95427 38032 ft 466 kts 268°
2026-05-06 13:00 54.00281 -20.06431 38036 ft 466 kts 274°
2026-05-06 13:01 54.00636 -20.15604 38031 ft 467 kts 274°
2026-05-06 13:01 54.01152 -20.28399 38032 ft 466 kts 274°
2026-05-06 13:02 54.01507 -20.37622 38031 ft 466 kts 274°
2026-05-06 13:02 54.01924 -20.48577 38035 ft 467 kts 273°
2026-05-06 13:03 54.02333 -20.59622 38027 ft 467 kts 273°
2026-05-06 13:03 54.02731 -20.70646 38031 ft 467 kts 273°
2026-05-06 13:04 54.03120 -20.81675 38026 ft 467 kts 273°
2026-05-06 13:04 54.03496 -20.92640 38026 ft 467 kts 273°
2026-05-06 13:05 54.03866 -21.03695 38034 ft 468 kts 272°
2026-05-06 13:05 54.04225 -21.14786 38033 ft 469 kts 272°
2026-05-06 13:06 54.04576 -21.25878 38026 ft 469 kts 272°
2026-05-06 13:06 54.04913 -21.36896 38031 ft 469 kts 272°
2026-05-06 13:07 54.05242 -21.47975 38042 ft 468 kts 272°
2026-05-06 13:07 54.05560 -21.59046 38029 ft 468 kts 272°
2026-05-06 13:08 54.05869 -21.70138 38041 ft 470 kts 272°
2026-05-06 13:08 54.06169 -21.81260 38044 ft 470 kts 272°
2026-05-06 13:09 54.06456 -21.92319 38046 ft 470 kts 272°
2026-05-06 13:09 54.06736 -22.03461 38044 ft 470 kts 271°
2026-05-06 13:10 54.07005 -22.14601 38045 ft 470 kts 271°
2026-05-06 13:10 54.07263 -22.25709 38044 ft 469 kts 271°
2026-05-06 13:11 54.07509 -22.36757 38047 ft 469 kts 271°
2026-05-06 13:11 54.07747 -22.47873 38036 ft 469 kts 271°
2026-05-06 13:12 54.07974 -22.58957 38039 ft 468 kts 271°
2026-05-06 13:12 54.08188 -22.69959 38032 ft 468 kts 271°
2026-05-06 13:13 54.08395 -22.81050 38038 ft 470 kts 271°
2026-05-06 13:13 54.08593 -22.92216 38037 ft 472 kts 271°
2026-05-06 13:14 54.08780 -23.03390 38204 ft 471 kts 270°
2026-05-06 13:14 54.08870 -23.08974 38450 ft 470 kts 270°
2026-05-06 13:14 54.08956 -23.14550 38654 ft 470 kts 271°
2026-05-06 13:14 54.09041 -23.20129 38804 ft 471 kts 271°
2026-05-06 13:15 54.09124 -23.25705 38972 ft 471 kts 271°
2026-05-06 13:15 54.09203 -23.31289 39125 ft 471 kts 271°
2026-05-06 13:15 54.09280 -23.36866 39234 ft 472 kts 270°
2026-05-06 13:15 54.09353 -23.42386 39378 ft 472 kts 270°
2026-05-06 13:16 54.09425 -23.47996 39534 ft 472 kts 270°
2026-05-06 13:16 54.09494 -23.53595 39683 ft 472 kts 270°
2026-05-06 13:16 54.09561 -23.59191 39830 ft 472 kts 270°
2026-05-06 13:16 54.09625 -23.64785 39975 ft 473 kts 270°
2026-05-06 13:17 54.09687 -23.70404 40050 ft 475 kts 270°
2026-05-06 13:17 54.09803 -23.81694 40045 ft 474 kts 270°
2026-05-06 13:18 54.09907 -23.92827 40049 ft 472 kts 270°
2026-05-06 13:18 54.10001 -24.04050 40047 ft 474 kts 270°
2026-05-06 13:19 54.10086 -24.15313 40053 ft 475 kts 270°
2026-05-06 13:19 54.10159 -24.26560 40060 ft 474 kts 270°
2026-05-06 13:20 54.10222 -24.37805 40054 ft 473 kts 270°
2026-05-06 13:20 54.10276 -24.49015 40054 ft 473 kts 270°
2026-05-06 13:21 54.10317 -24.60235 40050 ft 474 kts 270°
2026-05-06 13:21 54.10349 -24.71504 40059 ft 476 kts 269°
2026-05-06 13:22 54.10370 -24.82729 40062 ft 476 kts 269°
2026-05-06 13:22 54.10381 -24.94007 40060 ft 475 kts 269°
2026-05-06 13:23 54.10382 -25.05255 40054 ft 473 kts 269°
2026-05-06 13:23 54.10371 -25.16411 40054 ft 474 kts 269°
2026-05-06 13:24 54.10351 -25.27662 40059 ft 475 kts 269°
2026-05-06 13:24 54.10320 -25.38949 40060 ft 476 kts 269°
2026-05-06 13:25 54.10278 -25.50224 40070 ft 477 kts 269°
2026-05-06 13:25 54.10226 -25.61535 40077 ft 477 kts 269°
2026-05-06 13:26 54.10163 -25.72824 40067 ft 476 kts 269°
2026-05-06 13:26 54.10090 -25.84058 40067 ft 476 kts 269°
2026-05-06 13:27 54.10006 -25.95349 40067 ft 477 kts 269°
2026-05-06 13:27 54.09911 -26.06664 40069 ft 477 kts 269°
2026-05-06 13:28 54.09806 -26.17924 40072 ft 477 kts 269°
2026-05-06 13:28 54.09690 -26.29254 40069 ft 478 kts 269°
2026-05-06 13:29 54.09563 -26.40597 40070 ft 479 kts 269°
2026-05-06 13:29 54.09427 -26.51855 40070 ft 478 kts 268°
2026-05-06 13:30 54.09279 -26.63195 40067 ft 477 kts 268°
2026-05-06 13:30 54.09122 -26.74406 40074 ft 475 kts 268°
2026-05-06 13:31 54.08953 -26.85682 40067 ft 476 kts 268°
2026-05-06 13:31 54.08773 -26.97013 40064 ft 479 kts 268°
2026-05-06 13:32 54.08583 -27.08365 40071 ft 480 kts 268°
2026-05-06 13:32 54.08382 -27.19678 40074 ft 480 kts 268°
2026-05-06 13:33 54.08169 -27.31040 40075 ft 480 kts 268°
2026-05-06 13:33 54.07946 -27.42399 40059 ft 480 kts 268°
2026-05-06 13:34 54.07712 -27.53790 40064 ft 482 kts 268°
2026-05-06 13:34 54.07467 -27.65157 40065 ft 481 kts 268°
2026-05-06 13:35 54.07211 -27.76549 40064 ft 480 kts 268°
2026-05-06 13:35 54.06947 -27.87828 40059 ft 478 kts 268°
2026-05-06 13:36 54.06670 -27.99169 40064 ft 477 kts 268°
2026-05-06 13:36 54.06384 -28.10479 40057 ft 480 kts 268°
2026-05-06 13:37 54.06086 -28.21845 40061 ft 482 kts 268°
2026-05-06 13:37 54.05775 -28.33260 40060 ft 481 kts 267°
2026-05-06 13:38 54.05458 -28.44551 40060 ft 479 kts 267°
2026-05-06 13:38 54.05129 -28.55850 40051 ft 478 kts 267°
2026-05-06 13:39 54.04788 -28.67189 40052 ft 480 kts 267°
2026-05-06 13:39 54.04437 -28.78539 40052 ft 480 kts 267°
2026-05-06 13:40 54.04075 -28.89866 40049 ft 479 kts 267°
2026-05-06 13:40 54.03702 -29.01222 40051 ft 480 kts 267°
2026-05-06 13:41 54.03321 -29.12506 40043 ft 480 kts 267°
2026-05-06 13:41 54.02927 -29.23847 40047 ft 479 kts 267°
2026-05-06 13:42 54.02522 -29.35165 40046 ft 480 kts 267°
2026-05-06 13:42 54.02108 -29.46467 40036 ft 477 kts 266°
2026-05-06 13:43 54.01684 -29.57748 40030 ft 479 kts 266°
2026-05-06 13:43 54.01252 -29.68968 40030 ft 478 kts 266°
2026-05-06 13:44 54.00805 -29.80284 40023 ft 479 kts 266°
2026-05-06 13:44 54.00348 -29.91588 40022 ft 479 kts 266°
2026-05-06 13:45 53.99979 -30.02826 40029 ft 476 kts 270°
2026-05-06 13:45 53.99818 -30.19782 40020 ft 479 kts 269°
2026-05-06 13:46 53.99715 -30.31064 40011 ft 478 kts 269°
2026-05-06 13:46 53.99582 -30.42442 40026 ft 484 kts 269°
2026-05-06 13:47 53.99447 -30.53899 40017 ft 484 kts 269°
2026-05-06 13:47 53.99297 -30.65331 40015 ft 483 kts 269°
2026-05-06 13:48 53.99166 -30.74801 40013 ft 481 kts 269°
2026-05-06 13:48 53.98999 -30.86148 40008 ft 480 kts 269°
2026-05-06 13:49 53.98821 -30.97519 40004 ft 482 kts 269°
2026-05-06 13:49 53.98632 -31.08898 40008 ft 485 kts 269°
2026-05-06 13:50 53.98430 -31.20370 40022 ft 484 kts 268°
2026-05-06 13:50 53.98217 -31.31823 40023 ft 483 kts 268°
2026-05-06 13:51 53.97996 -31.43167 40023 ft 483 kts 268°
2026-05-06 13:51 53.97764 -31.54561 40018 ft 482 kts 268°
2026-05-06 13:52 53.97520 -31.65968 40017 ft 482 kts 268°
2026-05-06 13:52 53.97267 -31.77305 40019 ft 482 kts 268°
2026-05-06 13:53 53.97001 -31.88706 40027 ft 483 kts 268°
2026-05-06 13:53 53.96725 -32.00126 40027 ft 482 kts 268°
2026-05-06 13:54 53.96440 -32.11454 40027 ft 483 kts 268°
2026-05-06 13:54 53.96143 -32.22821 40030 ft 482 kts 268°
2026-05-06 13:55 53.95835 -32.34197 40033 ft 481 kts 268°
2026-05-06 13:55 53.95517 -32.45557 40035 ft 483 kts 268°
2026-05-06 13:56 53.95187 -32.56951 40036 ft 482 kts 267°
2026-05-06 13:56 53.94847 -32.68325 40048 ft 484 kts 267°
2026-05-06 13:57 53.94498 -32.79635 40038 ft 482 kts 267°
2026-05-06 13:57 53.94136 -32.90994 40042 ft 482 kts 267°
2026-05-06 13:58 53.93764 -33.02372 40046 ft 482 kts 267°
2026-05-06 13:58 53.93383 -33.13684 40052 ft 482 kts 267°
2026-05-06 13:59 53.92989 -33.25048 40050 ft 483 kts 267°
2026-05-06 13:59 53.92584 -33.36416 40049 ft 482 kts 267°
2026-05-06 14:00 53.92168 -33.47794 40051 ft 483 kts 267°
2026-05-06 14:00 53.91743 -33.59141 40055 ft 482 kts 267°
2026-05-06 14:01 53.91307 -33.70457 40056 ft 483 kts 266°
2026-05-06 14:01 53.90860 -33.81818 40056 ft 482 kts 266°
2026-05-06 14:02 53.90401 -33.93187 40059 ft 482 kts 266°
2026-05-06 14:02 53.89934 -34.04483 40066 ft 483 kts 266°
2026-05-06 14:03 53.89455 -34.15831 40066 ft 482 kts 266°
2026-05-06 14:03 53.88965 -34.27183 40069 ft 483 kts 266°
2026-05-06 14:04 53.88463 -34.38546 40070 ft 483 kts 266°
2026-05-06 14:04 53.87950 -34.49907 40063 ft 482 kts 266°
2026-05-06 14:05 53.87427 -34.61252 40065 ft 483 kts 266°
2026-05-06 14:05 53.86897 -34.72538 40069 ft 484 kts 266°
2026-05-06 14:06 53.86351 -34.83901 40075 ft 484 kts 266°
2026-05-06 14:06 53.85794 -34.95289 40075 ft 484 kts 266°
2026-05-06 14:07 53.85226 -35.06670 40075 ft 484 kts 266°
2026-05-06 14:07 53.84652 -35.17967 40081 ft 484 kts 266°
2026-05-06 14:08 53.84063 -35.29329 40080 ft 484 kts 266°
2026-05-06 14:08 53.83463 -35.40700 40085 ft 485 kts 265°
2026-05-06 14:09 53.82851 -35.52086 40090 ft 485 kts 265°
2026-05-06 14:09 53.82229 -35.63473 40084 ft 486 kts 265°
2026-05-06 14:10 53.81595 -35.74852 40085 ft 484 kts 265°
2026-05-06 14:10 53.80958 -35.86114 40089 ft 483 kts 265°
2026-05-06 14:11 53.80306 -35.97431 40097 ft 482 kts 265°
2026-05-06 14:11 53.79645 -36.08722 40094 ft 482 kts 265°
2026-05-06 14:12 53.78974 -36.20002 40098 ft 482 kts 265°
2026-05-06 14:12 53.78291 -36.31292 40103 ft 482 kts 265°
2026-05-06 14:13 53.77604 -36.42495 40103 ft 481 kts 265°
2026-05-06 14:13 53.76901 -36.53770 40103 ft 481 kts 265°
2026-05-06 14:14 53.76187 -36.65043 40094 ft 483 kts 265°
2026-05-06 14:14 53.75465 -36.76274 40096 ft 484 kts 265°
2026-05-06 14:15 53.74727 -36.87587 40104 ft 484 kts 265°
2026-05-06 14:15 53.73980 -36.98862 40107 ft 481 kts 265°
2026-05-06 14:16 53.73227 -37.10079 40099 ft 480 kts 265°
2026-05-06 14:16 53.72462 -37.21310 40101 ft 481 kts 265°
2026-05-06 14:17 53.71691 -37.32482 40109 ft 482 kts 265°
2026-05-06 14:17 53.70902 -37.43747 40114 ft 483 kts 265°
2026-05-06 14:18 53.70101 -37.55018 40106 ft 481 kts 265°
2026-05-06 14:18 53.69296 -37.66208 40104 ft 479 kts 265°
2026-05-06 14:19 53.68481 -37.77378 40105 ft 479 kts 265°
2026-05-06 14:19 53.67661 -37.88480 40105 ft 479 kts 265°
2026-05-06 14:20 53.66825 -37.99656 40104 ft 480 kts 264°
2026-05-06 14:20 53.65982 -38.10780 40108 ft 480 kts 265°
2026-05-06 14:21 53.65125 -38.21953 40116 ft 480 kts 264°
2026-05-06 14:21 53.64255 -38.33133 40119 ft 481 kts 264°
2026-05-06 14:22 53.63377 -38.44292 40115 ft 479 kts 264°
2026-05-06 14:22 53.62493 -38.55407 40113 ft 478 kts 264°
2026-05-06 14:23 53.61595 -38.66535 40112 ft 479 kts 264°
2026-05-06 14:23 53.60693 -38.77597 40118 ft 480 kts 264°
2026-05-06 14:24 53.59773 -38.88744 40118 ft 480 kts 264°
2026-05-06 14:24 53.58842 -38.99893 40118 ft 480 kts 264°
2026-05-06 14:25 53.57906 -39.10980 40120 ft 481 kts 264°
2026-05-06 14:25 53.56952 -39.22147 40126 ft 482 kts 264°
2026-05-06 14:26 53.55987 -39.33314 40114 ft 480 kts 264°
2026-05-06 14:26 53.55019 -39.44405 40110 ft 478 kts 264°
2026-05-06 14:27 53.54042 -39.55461 40111 ft 478 kts 264°
2026-05-06 14:27 53.53055 -39.66523 40111 ft 478 kts 264°
2026-05-06 14:28 53.52063 -39.77517 40114 ft 479 kts 263°
2026-05-06 14:28 53.51052 -39.88595 40114 ft 479 kts 263°
2026-05-06 14:29 53.50034 -39.99682 40118 ft 478 kts 265°
2026-05-06 14:29 53.49401 -40.10718 40132 ft 479 kts 266°
2026-05-06 14:30 53.48743 -40.21865 40136 ft 480 kts 266°
2026-05-06 14:30 53.48096 -40.33039 40138 ft 480 kts 266°
2026-05-06 14:31 53.47425 -40.44193 40122 ft 479 kts 266°
2026-05-06 14:31 53.46755 -40.55295 40118 ft 477 kts 266°
2026-05-06 14:32 53.46076 -40.66303 40120 ft 476 kts 266°
2026-05-06 14:32 53.45386 -40.77355 40119 ft 476 kts 266°
2026-05-06 14:33 53.44683 -40.88427 40119 ft 476 kts 266°
2026-05-06 14:33 53.43972 -40.99487 40124 ft 476 kts 266°
2026-05-06 14:34 53.43254 -41.10468 40123 ft 475 kts 266°
2026-05-06 14:34 53.42645 -41.19679 40122 ft 474 kts 266°
2026-05-06 14:35 53.41908 -41.30668 40121 ft 474 kts 266°
2026-05-06 14:35 53.41162 -41.41636 40121 ft 473 kts 266°
2026-05-06 14:36 53.40411 -41.52542 40126 ft 474 kts 266°
2026-05-06 14:36 53.39641 -41.63554 40119 ft 476 kts 266°
2026-05-06 14:37 53.38862 -41.74547 40125 ft 474 kts 266°
2026-05-06 14:37 53.38080 -41.85456 40123 ft 473 kts 265°
2026-05-06 14:38 53.37284 -41.96413 40122 ft 473 kts 265°
2026-05-06 14:38 53.36482 -42.07297 40122 ft 473 kts 265°
2026-05-06 14:39 53.35665 -42.18255 40127 ft 474 kts 265°
2026-05-06 14:39 53.34838 -42.29197 40127 ft 472 kts 265°
2026-05-06 14:40 53.34008 -42.40068 40137 ft 470 kts 265°
2026-05-06 14:40 53.33172 -42.50861 40130 ft 470 kts 265°
2026-05-06 14:41 53.32322 -42.61713 40128 ft 470 kts 265°
2026-05-06 14:41 53.31462 -42.72563 40127 ft 470 kts 265°
2026-05-06 14:42 53.30593 -42.83399 40130 ft 469 kts 265°
2026-05-06 14:42 53.29717 -42.94188 40130 ft 466 kts 265°
2026-05-06 14:43 53.28841 -43.04871 40133 ft 467 kts 265°
2026-05-06 14:43 53.27949 -43.15619 40136 ft 467 kts 265°
2026-05-06 14:44 53.27045 -43.26386 40136 ft 467 kts 265°
2026-05-06 14:45 53.25670 -43.42534 40136 ft 468 kts 265°
2026-05-06 14:45 53.24745 -43.53250 40136 ft 465 kts 264°
2026-05-06 14:46 53.23820 -43.63871 40135 ft 464 kts 264°
2026-05-06 14:46 53.22877 -43.74566 40136 ft 464 kts 264°
2026-05-06 14:47 53.21934 -43.85160 40132 ft 464 kts 264°
2026-05-06 14:47 53.20972 -43.95839 40132 ft 464 kts 264°
2026-05-06 14:48 53.20002 -44.06501 40131 ft 463 kts 264°
2026-05-06 14:48 53.19037 -44.17010 40132 ft 460 kts 264°
2026-05-06 14:49 53.18057 -44.27576 40132 ft 460 kts 264°
2026-05-06 14:49 53.17065 -44.38156 40131 ft 461 kts 264°
2026-05-06 14:50 53.16072 -44.48652 40130 ft 462 kts 264°
2026-05-06 14:50 53.15059 -44.59249 40133 ft 462 kts 264°
2026-05-06 14:51 53.14040 -44.69805 40137 ft 458 kts 264°
2026-05-06 14:51 53.13031 -44.80172 40129 ft 455 kts 264°
2026-05-06 14:52 53.12007 -44.90583 40133 ft 456 kts 264°
2026-05-06 14:52 53.10971 -45.01020 40124 ft 457 kts 263°
2026-05-06 14:53 53.09925 -45.11458 40133 ft 457 kts 263°
2026-05-06 14:53 53.08874 -45.21852 40136 ft 458 kts 263°
2026-05-06 14:54 53.07812 -45.32257 40124 ft 452 kts 263°
2026-05-06 14:54 53.06755 -45.42539 40118 ft 451 kts 263°
2026-05-06 14:55 53.05687 -45.52823 40119 ft 452 kts 263°
2026-05-06 14:55 53.04608 -45.63118 40122 ft 452 kts 263°
2026-05-06 14:56 53.03521 -45.73400 40121 ft 452 kts 263°
2026-05-06 14:56 53.02426 -45.83675 40121 ft 451 kts 263°
2026-05-06 14:57 53.01328 -45.93885 40117 ft 451 kts 262°
2026-05-06 14:57 53.00217 -46.04133 40109 ft 451 kts 262°
2026-05-06 14:58 52.99096 -46.14382 40106 ft 451 kts 262°
2026-05-06 14:58 52.97968 -46.24615 40102 ft 450 kts 262°
2026-05-06 14:59 52.96831 -46.34842 40103 ft 450 kts 262°
2026-05-06 14:59 52.95686 -46.45053 40098 ft 449 kts 262°
2026-05-06 15:00 52.94534 -46.55247 40098 ft 451 kts 262°
2026-05-06 15:00 52.93368 -46.65487 40100 ft 452 kts 262°
2026-05-06 15:01 52.92200 -46.75655 40105 ft 452 kts 262°
2026-05-06 15:01 52.91013 -46.85905 40104 ft 452 kts 262°
2026-05-06 15:02 52.89817 -46.96153 40097 ft 452 kts 261°
2026-05-06 15:02 52.88614 -47.06387 40082 ft 452 kts 261°
2026-05-06 15:03 52.87409 -47.16551 40081 ft 451 kts 261°
2026-05-06 15:03 52.86191 -47.26747 40071 ft 451 kts 261°
2026-05-06 15:04 52.84966 -47.36927 40073 ft 450 kts 261°
2026-05-06 15:04 52.83740 -47.47030 40071 ft 451 kts 261°
2026-05-06 15:05 52.82495 -47.57213 40065 ft 452 kts 261°
2026-05-06 15:05 52.81238 -47.67425 40057 ft 453 kts 260°
2026-05-06 15:06 52.79968 -47.77658 40061 ft 454 kts 260°
2026-05-06 15:06 52.78690 -47.87877 40057 ft 453 kts 260°
2026-05-06 15:07 52.77409 -47.98051 40044 ft 451 kts 260°
2026-05-06 15:07 52.76130 -48.08131 40041 ft 450 kts 260°
2026-05-06 15:08 52.74835 -48.18264 40025 ft 451 kts 260°
2026-05-06 15:08 52.73528 -48.28425 40050 ft 454 kts 259°
2026-05-06 15:09 52.72214 -48.38554 40052 ft 454 kts 259°
2026-05-06 15:09 52.70884 -48.48741 40051 ft 454 kts 259°
2026-05-06 15:10 52.69547 -48.58902 40042 ft 454 kts 259°
2026-05-06 15:10 52.68198 -48.69085 40044 ft 454 kts 259°
2026-05-06 15:11 52.66845 -48.79228 40027 ft 452 kts 259°
2026-05-06 15:11 52.65503 -48.89220 40026 ft 448 kts 259°
2026-05-06 15:12 52.64144 -48.99270 40020 ft 449 kts 259°
2026-05-06 15:12 52.62776 -49.09314 40020 ft 450 kts 259°
2026-05-06 15:13 52.61400 -49.19352 40029 ft 449 kts 259°
2026-05-06 15:13 52.60016 -49.29372 40017 ft 448 kts 259°
2026-05-06 15:14 52.58639 -49.39285 40016 ft 445 kts 258°
2026-05-06 15:14 52.57249 -49.49212 40009 ft 445 kts 258°
2026-05-06 15:15 52.55854 -49.59122 40006 ft 445 kts 258°
2026-05-06 15:15 52.54455 -49.68990 39998 ft 445 kts 258°
2026-05-06 15:16 52.53039 -49.78921 39997 ft 445 kts 258°
2026-05-06 15:16 52.51616 -49.88825 39998 ft 446 kts 258°
2026-05-06 15:17 52.50187 -49.98669 40006 ft 445 kts 255°
2026-05-06 15:17 52.48014 -50.08194 40006 ft 445 kts 250°
2026-05-06 15:18 52.45717 -50.17619 40002 ft 445 kts 250°
2026-05-06 15:18 52.43415 -50.27034 40001 ft 444 kts 250°
2026-05-06 15:19 52.41107 -50.36430 40001 ft 444 kts 250°
2026-05-06 15:19 52.38814 -50.45724 39996 ft 440 kts 250°
2026-05-06 15:20 52.36522 -50.54981 39995 ft 439 kts 250°
2026-05-06 15:20 52.34601 -50.62703 40000 ft 442 kts 250°
2026-05-06 15:21 52.32269 -50.72047 40002 ft 443 kts 249°
2026-05-06 15:21 52.29934 -50.81362 39999 ft 441 kts 249°
2026-05-06 15:22 52.27616 -50.90568 39982 ft 439 kts 249°
2026-05-06 15:22 52.25297 -50.99746 39982 ft 436 kts 249°
2026-05-06 15:23 52.22973 -51.08901 39982 ft 437 kts 249°
2026-05-06 15:23 52.20653 -51.18004 39994 ft 435 kts 249°
2026-05-06 15:24 52.18317 -51.27134 39994 ft 435 kts 249°
2026-05-06 15:24 52.15985 -51.36214 39986 ft 434 kts 249°
2026-05-06 15:25 52.13643 -51.45291 39987 ft 434 kts 249°
2026-05-06 15:25 52.11309 -51.54303 39988 ft 435 kts 249°
2026-05-06 15:26 52.08953 -51.63366 39986 ft 435 kts 249°
2026-05-06 15:26 52.06594 -51.72401 39987 ft 435 kts 249°
2026-05-06 15:27 52.04218 -51.81464 39986 ft 435 kts 249°
2026-05-06 15:27 52.01838 -51.90509 39976 ft 433 kts 248°
2026-05-06 15:28 51.99465 -51.99490 39975 ft 432 kts 248°
2026-05-06 15:28 51.97087 -52.08458 39974 ft 432 kts 248°
2026-05-06 15:29 51.94714 -52.17370 39974 ft 432 kts 248°
2026-05-06 15:29 51.92322 -52.26316 39976 ft 431 kts 248°
2026-05-06 15:30 51.89939 -52.35198 39967 ft 430 kts 248°
2026-05-06 15:30 51.87548 -52.44071 39966 ft 429 kts 248°
2026-05-06 15:31 51.85165 -52.52885 39968 ft 431 kts 248°
2026-05-06 15:31 51.82753 -52.61769 39967 ft 432 kts 248°
2026-05-06 15:32 51.79106 -52.75140 39971 ft 433 kts 247°
2026-05-06 15:32 51.76667 -52.84035 39966 ft 431 kts 247°
2026-05-06 15:33 51.74253 -52.92812 39962 ft 430 kts 247°
2026-05-06 15:33 51.71819 -53.01625 39959 ft 429 kts 247°
2026-05-06 15:34 51.69382 -53.10414 39956 ft 429 kts 247°
2026-05-06 15:34 51.66939 -53.19196 39952 ft 429 kts 247°
2026-05-06 15:35 51.64509 -53.27897 39953 ft 428 kts 246°
2026-05-06 15:35 51.62054 -53.36651 39953 ft 428 kts 246°
2026-05-06 15:36 51.59591 -53.45403 39958 ft 429 kts 246°
2026-05-06 15:36 51.57136 -53.54093 39954 ft 429 kts 246°
2026-05-06 15:37 51.54658 -53.62834 39955 ft 429 kts 246°
2026-05-06 15:37 51.52175 -53.71563 39952 ft 429 kts 246°
2026-05-06 15:38 51.49691 -53.80259 39952 ft 428 kts 246°
2026-05-06 15:38 51.47429 -53.89063 39950 ft 427 kts 250°
2026-05-06 15:39 51.45388 -53.97981 39962 ft 429 kts 250°
2026-05-06 15:39 51.43347 -54.06975 39967 ft 430 kts 250°
2026-05-06 15:40 51.41286 -54.15983 39958 ft 430 kts 250°
2026-05-06 15:40 51.39219 -54.24984 39962 ft 430 kts 250°
2026-05-06 15:41 51.37167 -54.33884 39959 ft 428 kts 249°
2026-05-06 15:41 51.35100 -54.42809 39955 ft 426 kts 249°
2026-05-06 15:42 51.33036 -54.51688 39951 ft 426 kts 249°
2026-05-06 15:42 51.30959 -54.60580 39947 ft 427 kts 249°
2026-05-06 15:43 51.28867 -54.69505 39956 ft 429 kts 249°
2026-05-06 15:43 51.26770 -54.78413 39962 ft 431 kts 249°
2026-05-06 15:44 51.24657 -54.87349 39964 ft 429 kts 249°
2026-05-06 15:44 51.22545 -54.96247 39955 ft 427 kts 249°
2026-05-06 15:45 51.20434 -55.05104 39950 ft 427 kts 249°
2026-05-06 15:45 51.18323 -55.13924 39945 ft 429 kts 249°
2026-05-06 15:46 51.16188 -55.22807 39954 ft 429 kts 249°
2026-05-06 15:46 51.14042 -55.31701 39949 ft 429 kts 249°
2026-05-06 15:47 51.11895 -55.40562 39951 ft 429 kts 249°
2026-05-06 15:47 51.09741 -55.49417 39954 ft 429 kts 248°
2026-05-06 15:48 51.07586 -55.58242 39954 ft 429 kts 248°
2026-05-06 15:48 51.05416 -55.67093 39951 ft 429 kts 248°
2026-05-06 15:49 51.03243 -55.75916 39954 ft 429 kts 248°
2026-05-06 15:49 51.01075 -55.84687 39953 ft 428 kts 248°
2026-05-06 15:50 50.98888 -55.93502 39949 ft 428 kts 248°
2026-05-06 15:50 50.96702 -56.02273 39964 ft 427 kts 248°
2026-05-06 15:51 50.94522 -56.10991 39967 ft 424 kts 248°
2026-05-06 15:51 50.92355 -56.19619 39966 ft 424 kts 248°
2026-05-06 15:52 50.90159 -56.28329 39971 ft 425 kts 248°
2026-05-06 15:52 50.87956 -56.37034 39965 ft 425 kts 248°
2026-05-06 15:53 50.85747 -56.45730 39973 ft 426 kts 248°
2026-05-06 15:53 50.83546 -56.54362 39973 ft 426 kts 248°
2026-05-06 15:54 50.81320 -56.63055 39961 ft 426 kts 247°
2026-05-06 15:54 50.79086 -56.71750 39963 ft 427 kts 247°
2026-05-06 15:55 50.76839 -56.80458 39971 ft 428 kts 247°
2026-05-06 15:55 50.74586 -56.89159 39973 ft 427 kts 247°
2026-05-06 15:56 50.72351 -56.97754 39970 ft 424 kts 246°
2026-05-06 15:56 50.70107 -57.06353 39954 ft 423 kts 246°
2026-05-06 15:57 50.67850 -57.14967 39961 ft 425 kts 246°
2026-05-06 15:57 50.65592 -57.23556 39964 ft 426 kts 246°
2026-05-06 15:58 50.63316 -57.32179 39968 ft 427 kts 246°
2026-05-06 15:58 50.61029 -57.40812 39968 ft 427 kts 246°
2026-05-06 15:59 50.58736 -57.49437 39969 ft 427 kts 246°
2026-05-06 15:59 50.56446 -57.58018 39966 ft 427 kts 246°
2026-05-06 16:00 50.54134 -57.66648 39967 ft 427 kts 246°
2026-05-06 16:00 50.51822 -57.75245 39978 ft 426 kts 246°
2026-05-06 16:01 50.49523 -57.83760 39975 ft 425 kts 246°
2026-05-06 16:01 50.47210 -57.92299 39975 ft 424 kts 246°
2026-05-06 16:02 50.44892 -58.00824 39976 ft 424 kts 246°
2026-05-06 16:02 50.42562 -58.09362 39969 ft 426 kts 246°
2026-05-06 16:03 50.40238 -58.17846 39973 ft 426 kts 246°
2026-05-06 16:03 50.37896 -58.26368 39973 ft 426 kts 246°
2026-05-06 16:04 50.35543 -58.34896 39976 ft 425 kts 246°
2026-05-06 16:04 50.33187 -58.43403 39962 ft 425 kts 246°
2026-05-06 16:05 50.30843 -58.51840 39967 ft 425 kts 246°
2026-05-06 16:05 50.28478 -58.60318 39977 ft 424 kts 246°
2026-05-06 16:06 50.26111 -58.68774 39979 ft 424 kts 246°
2026-05-06 16:06 50.24136 -58.75808 39973 ft 425 kts 246°
2026-05-06 16:07 50.21362 -58.85650 39978 ft 426 kts 246°
2026-05-06 16:07 50.19369 -58.92698 39973 ft 426 kts 246°
2026-05-06 16:08 50.16967 -59.01160 39976 ft 425 kts 246°
2026-05-06 16:08 50.14566 -59.09591 39958 ft 424 kts 246°
2026-05-06 16:09 50.12164 -59.17997 39965 ft 423 kts 245°
2026-05-06 16:09 50.09778 -59.26317 39962 ft 423 kts 245°
2026-05-06 16:10 50.07367 -59.34695 39957 ft 423 kts 245°
2026-05-06 16:10 50.04957 -59.43040 39965 ft 421 kts 245°
2026-05-06 16:11 50.02558 -59.51314 39968 ft 423 kts 245°
2026-05-06 16:11 50.00128 -59.59673 39967 ft 423 kts 245°
2026-05-06 16:12 49.97693 -59.68016 39959 ft 423 kts 245°
2026-05-06 16:12 49.95268 -59.76300 39960 ft 423 kts 245°
2026-05-06 16:13 49.92819 -59.84632 39957 ft 424 kts 245°
2026-05-06 16:13 49.90363 -59.92961 39955 ft 425 kts 244°
2026-05-06 16:14 49.87906 -60.01265 39948 ft 425 kts 244°
2026-05-06 16:14 49.85434 -60.09592 39947 ft 424 kts 244°
2026-05-06 16:15 49.82977 -60.17840 39952 ft 424 kts 244°
2026-05-06 16:15 49.80493 -60.26146 39934 ft 425 kts 244°
2026-05-06 16:16 49.77996 -60.34472 39939 ft 427 kts 244°
2026-05-06 16:16 49.75489 -60.42802 39939 ft 427 kts 244°
2026-05-06 16:17 49.72992 -60.51069 39938 ft 426 kts 244°
2026-05-06 16:17 49.70480 -60.59361 39938 ft 425 kts 244°
2026-05-06 16:18 49.67968 -60.67620 39932 ft 424 kts 244°
2026-05-06 16:18 49.65456 -60.75854 39934 ft 423 kts 244°
2026-05-06 16:19 49.62950 -60.84042 39931 ft 425 kts 244°
2026-05-06 16:19 49.60409 -60.92315 39935 ft 427 kts 244°
2026-05-06 16:20 49.57859 -61.00592 39942 ft 427 kts 243°
2026-05-06 16:20 49.55311 -61.08832 39940 ft 424 kts 243°
2026-05-06 16:21 49.52766 -61.17031 39931 ft 427 kts 243°
2026-05-06 16:21 49.50192 -61.25304 39934 ft 429 kts 243°
2026-05-06 16:22 49.47621 -61.33535 39938 ft 429 kts 243°
2026-05-06 16:22 49.45029 -61.41807 39937 ft 429 kts 243°
2026-05-06 16:23 49.42434 -61.50061 39942 ft 429 kts 243°
2026-05-06 16:23 49.39830 -61.58316 39941 ft 430 kts 243°
2026-05-06 16:24 49.37209 -61.66600 39937 ft 431 kts 243°
2026-05-06 16:24 49.34599 -61.74820 39937 ft 430 kts 243°
2026-05-06 16:25 49.31972 -61.83065 39967 ft 430 kts 243°
2026-05-06 16:25 49.30661 -61.87171 40216 ft 428 kts 243°
2026-05-06 16:25 49.29350 -61.91267 40340 ft 429 kts 243°
2026-05-06 16:26 49.28035 -61.95369 40473 ft 429 kts 243°
2026-05-06 16:26 49.26716 -61.99482 40570 ft 430 kts 243°
2026-05-06 16:26 49.25388 -62.03612 40686 ft 432 kts 243°
2026-05-06 16:26 49.24076 -62.07688 40822 ft 432 kts 243°
2026-05-06 16:27 49.22740 -62.11828 40954 ft 433 kts 243°
2026-05-06 16:27 49.21397 -62.15986 41089 ft 434 kts 243°
2026-05-06 16:27 49.20057 -62.20127 41219 ft 435 kts 243°
2026-05-06 16:27 49.18712 -62.24276 41355 ft 436 kts 243°
2026-05-06 16:28 49.17365 -62.28425 41490 ft 436 kts 243°
2026-05-06 16:28 49.16014 -62.32580 41620 ft 437 kts 243°
2026-05-06 16:28 49.14657 -62.36746 41753 ft 438 kts 243°
2026-05-06 16:28 49.13297 -62.40914 41871 ft 438 kts 243°
2026-05-06 16:29 49.11931 -62.45092 41980 ft 440 kts 243°
2026-05-06 16:29 49.10562 -62.49277 42149 ft 440 kts 243°
2026-05-06 16:29 49.09204 -62.53418 42277 ft 441 kts 243°
2026-05-06 16:29 49.07831 -62.57598 42386 ft 441 kts 243°
2026-05-06 16:30 49.06450 -62.61796 42518 ft 442 kts 243°
2026-05-06 16:30 49.05535 -62.64573 42592 ft 443 kts 243°
2026-05-06 16:30 49.03685 -62.70181 42749 ft 443 kts 243°
2026-05-06 16:30 49.02296 -62.74381 42876 ft 444 kts 243°
2026-05-06 16:31 48.99500 -62.82816 42913 ft 448 kts 243°
2026-05-06 16:31 48.96706 -62.91220 42923 ft 445 kts 243°
2026-05-06 16:32 48.93905 -62.99614 42919 ft 442 kts 243°
2026-05-06 16:32 48.91135 -63.07890 42920 ft 441 kts 243°
2026-05-06 16:33 48.88339 -63.16215 42913 ft 443 kts 243°
2026-05-06 16:34 48.84105 -63.28771 42921 ft 446 kts 243°
2026-05-06 16:34 48.81267 -63.37153 42925 ft 445 kts 243°
2026-05-06 16:35 48.78426 -63.45518 42920 ft 445 kts 243°
2026-05-06 16:35 48.75606 -63.53791 42909 ft 444 kts 243°
2026-05-06 16:36 48.72765 -63.62101 42907 ft 444 kts 243°
2026-05-06 16:36 48.69945 -63.70322 42895 ft 443 kts 243°
2026-05-06 16:37 48.67072 -63.78671 42902 ft 444 kts 243°
2026-05-06 16:37 48.64227 -63.86913 42906 ft 444 kts 243°
2026-05-06 16:38 48.61358 -63.95199 42904 ft 445 kts 243°
2026-05-06 16:38 48.58477 -64.03491 42908 ft 445 kts 243°
2026-05-06 16:39 48.55601 -64.11741 42898 ft 442 kts 243°
2026-05-06 16:39 48.52754 -64.19885 42895 ft 441 kts 243°
2026-05-06 16:40 48.49884 -64.28066 42895 ft 441 kts 243°
2026-05-06 16:40 48.47006 -64.36246 42896 ft 442 kts 243°
2026-05-06 16:41 48.44114 -64.44440 42898 ft 442 kts 243°
2026-05-06 16:41 48.41250 -64.52528 42895 ft 437 kts 243°
2026-05-06 16:42 48.38389 -64.60583 42883 ft 435 kts 243°
2026-05-06 16:42 48.35526 -64.68620 42883 ft 436 kts 243°
2026-05-06 16:43 48.32649 -64.76669 42893 ft 435 kts 243°
2026-05-06 16:43 48.29806 -64.84600 42893 ft 434 kts 243°
2026-05-06 16:44 48.26935 -64.92587 42887 ft 435 kts 243°
2026-05-06 16:44 48.24046 -65.00597 42892 ft 436 kts 243°
2026-05-06 16:45 48.21143 -65.08621 42894 ft 437 kts 243°
2026-05-06 16:45 48.18235 -65.16635 42894 ft 438 kts 243°
2026-05-06 16:46 48.15338 -65.24593 42893 ft 436 kts 243°
2026-05-06 16:46 48.12435 -65.32546 42882 ft 435 kts 243°
2026-05-06 16:47 48.09532 -65.40474 42884 ft 433 kts 243°
2026-05-06 16:47 48.06635 -65.48362 42892 ft 432 kts 242°
2026-05-06 16:48 48.03734 -65.56237 42885 ft 432 kts 242°
2026-05-06 16:48 48.00839 -65.64073 42868 ft 433 kts 242°
2026-05-06 16:49 47.97920 -65.71949 42882 ft 432 kts 242°
2026-05-06 16:49 47.95006 -65.79790 42881 ft 431 kts 242°
2026-05-06 16:50 47.92113 -65.87552 42888 ft 431 kts 242°
2026-05-06 16:50 47.89189 -65.95373 42885 ft 431 kts 242°
2026-05-06 16:51 47.86261 -66.03182 42868 ft 432 kts 242°
2026-05-06 16:51 47.83330 -66.10975 42890 ft 431 kts 242°
2026-05-06 16:52 47.80392 -66.18766 42887 ft 431 kts 242°
2026-05-06 16:52 47.77473 -66.26480 42880 ft 430 kts 242°
2026-05-06 16:53 47.74533 -66.34233 42880 ft 429 kts 242°
2026-05-06 16:53 47.71595 -66.41954 42859 ft 429 kts 242°
2026-05-06 16:54 47.68675 -66.49605 42873 ft 427 kts 242°
2026-05-06 16:54 47.65734 -66.57290 42874 ft 428 kts 242°
2026-05-06 16:55 47.63285 -66.63674 42873 ft 428 kts 242°
2026-05-06 16:55 47.60337 -66.71338 42872 ft 428 kts 242°
2026-05-06 16:56 47.57385 -66.78992 42873 ft 427 kts 241°
2026-05-06 16:56 47.54433 -66.86622 42878 ft 426 kts 241°
2026-05-06 16:57 47.51481 -66.94230 42875 ft 426 kts 241°
2026-05-06 16:57 47.48524 -67.01832 42871 ft 427 kts 241°
2026-05-06 16:58 47.45570 -67.09402 42877 ft 427 kts 241°
2026-05-06 16:58 47.42595 -67.17005 42857 ft 427 kts 241°
2026-05-06 16:59 47.39615 -67.24599 42878 ft 426 kts 241°
2026-05-06 16:59 47.36678 -67.32200 42899 ft 425 kts 243°
2026-05-06 17:00 47.33879 -67.39884 42887 ft 424 kts 242°
2026-05-06 17:00 47.31097 -67.47487 42886 ft 424 kts 243°
2026-05-06 17:01 47.28292 -67.55145 42879 ft 425 kts 242°
2026-05-06 17:01 47.25473 -67.62807 42895 ft 424 kts 242°
2026-05-06 17:02 47.22660 -67.70439 42894 ft 424 kts 242°
2026-05-06 17:02 47.19857 -67.78018 42895 ft 424 kts 242°
2026-05-06 17:03 47.17026 -67.85652 42892 ft 424 kts 242°
2026-05-06 17:03 47.14209 -67.93225 42897 ft 424 kts 242°
2026-05-06 17:04 47.11373 -68.00832 42899 ft 424 kts 242°
2026-05-06 17:04 47.08538 -68.08409 42900 ft 423 kts 242°
2026-05-06 17:05 47.05690 -68.16005 42921 ft 425 kts 242°
2026-05-06 17:05 47.02843 -68.23572 42927 ft 427 kts 242°
2026-05-06 17:06 46.99961 -68.31211 42932 ft 428 kts 242°
2026-05-06 17:06 46.97096 -68.38785 42925 ft 426 kts 242°
2026-05-06 17:07 46.94218 -68.46375 42940 ft 425 kts 242°
2026-05-06 17:07 46.91348 -68.53919 42943 ft 423 kts 242°
2026-05-06 17:08 46.88474 -68.61452 42941 ft 424 kts 241°
2026-05-06 17:08 46.85609 -68.68942 42935 ft 425 kts 241°
2026-05-06 17:09 46.82713 -68.76490 42943 ft 426 kts 241°
2026-05-06 17:09 46.79810 -68.84037 42934 ft 426 kts 241°
2026-05-06 17:10 46.76900 -68.91581 42935 ft 426 kts 241°
2026-05-06 17:10 46.74005 -68.99065 42920 ft 424 kts 241°
2026-05-06 17:11 46.71101 -69.06552 42921 ft 425 kts 241°
2026-05-06 17:11 46.68189 -69.14040 42927 ft 425 kts 241°
2026-05-06 17:12 46.65266 -69.21532 42928 ft 425 kts 241°
2026-05-06 17:12 46.62359 -69.28965 42923 ft 425 kts 241°
2026-05-06 17:13 46.59419 -69.36464 42906 ft 428 kts 240°
2026-05-06 17:13 46.56462 -69.43975 42900 ft 425 kts 241°
2026-05-06 17:14 46.53537 -69.51402 42900 ft 423 kts 241°
2026-05-06 17:14 46.50615 -69.58787 42893 ft 424 kts 241°
2026-05-06 17:15 46.47666 -69.66228 42903 ft 424 kts 240°
2026-05-06 17:15 46.44714 -69.73655 42880 ft 426 kts 240°
2026-05-06 17:16 46.41764 -69.81053 42898 ft 424 kts 240°
2026-05-06 17:16 46.38805 -69.88456 42886 ft 424 kts 240°
2026-05-06 17:17 46.35858 -69.95808 42878 ft 424 kts 240°
2026-05-06 17:17 46.32882 -70.03214 42879 ft 426 kts 240°
2026-05-06 17:18 46.29884 -70.10654 42881 ft 428 kts 240°
2026-05-06 17:18 46.26901 -70.18038 42882 ft 428 kts 240°
2026-05-06 17:19 46.23898 -70.25450 42882 ft 427 kts 240°
2026-05-06 17:19 46.23803 -70.25685 42882 ft 427 kts 240°
2026-05-06 17:46 46.22696 -70.28413 42856 ft 427 kts 240°
2026-05-06 17:46 46.19684 -70.35795 42882 ft 426 kts 240°
2026-05-06 17:47 46.16664 -70.43190 42871 ft 427 kts 240°
2026-05-06 17:47 46.13638 -70.50576 42873 ft 428 kts 240°
2026-05-06 17:48 46.10628 -70.57904 42891 ft 428 kts 239°
2026-05-06 17:48 46.07587 -70.65288 42879 ft 427 kts 239°
2026-05-06 17:49 46.06079 -70.68942 42355 ft 423 kts 239°
2026-05-06 17:49 46.04574 -70.72584 41744 ft 421 kts 239°
2026-05-06 17:49 46.03081 -70.76192 41245 ft 417 kts 239°
2026-05-06 17:49 46.01612 -70.79763 40727 ft 412 kts 242°
2026-05-06 17:50 46.00404 -70.83490 40197 ft 409 kts 249°